DW3024 Weather Reports


time (UTC)temp
F
wind
direction
speed
knots
gust
knots
rain 1hr
in
rain 24hr
in
rain mn
in
humidity
%
barometer
mb
20260507014938 73 157 3.5 7.8 0.00 0.00 0.00 77 1013.7
20260507013930 74 170 3.5 10.4 0.00 0.00 0.00 77 1014.1
20260507013429 74 181 2.6 10.4 0.00 0.00 0.00 77 1014.1
20260507012927 73 168 4.3 10.4 0.00 0.00 0.00 77 1014.1
20260507012428 73 175 3.5 8.7 0.00 0.00 0.00 77 1014.1
20260507011905 73 179 3.5 8.7 0.00 0.00 0.00 77 1014.2
20260507010941 74 164 3.5 10.4 0.00 0.00 0.00 77 1014.2
20260507010418 74 165 6.1 12.2 0.00 0.00 0.00 77 1014.3
20260507005945 74 183 3.5 12.2 0.00 0.00 0.00 77 1014.4
20260507005409 74 177 2.6 8.7 0.00 0.00 0.00 77 1014.3
20260507004915 74 177 2.6 8.7 0.00 0.00 0.00 76 1014.1
20260507004426 74 173 4.3 8.7 0.00 0.00 0.00 76 1014.1
20260507003908 74 174 2.6 8.7 0.00 0.00 0.00 76 1014.2
20260507003430 74 182 3.5 10.4 0.00 0.00 0.00 75 1014.1
20260507002938 74 166 4.3 10.4 0.00 0.00 0.00 74 1014.1
20260507002426 74 162 4.3 9.6 0.00 0.00 0.00 73 1014.0
20260507001924 74 172 3.5 11.3 0.00 0.00 0.00 72 1013.9
20260507001412 74 169 2.6 11.3 0.00 0.00 0.00 71 1014.0
20260507000407 75 193 3.5 10.4 0.00 0.00 0.00 70 1014.1
20260506235944 75 184 1.7 13.9 0.00 0.00 0.00 69 1014.2
20260506235442 75 182 4.3 13.9 0.00 0.00 0.00 69 1014.1
20260506234925 75 181 3.5 7.8 0.00 0.00 0.00 68 1014.1
20260506234419 75 199 3.5 10.4 0.00 0.00 0.00 68 1014.1
20260506233922 75 185 3.5 11.3 0.00 0.00 0.00 68 1013.9
20260506232918 76 154 2.6 9.6 0.00 0.00 0.00 67 1013.6
20260506232441 76 184 4.3 14.8 0.00 0.00 0.00 67 1013.8
20260506231900 76 163 6.1 14.8 0.00 0.00 0.00 67 1013.8
20260506231440 76 192 2.6 12.2 0.00 0.00 0.00 67 1014.0
20260506225413 77 179 6.1 11.3 0.00 0.00 0.00 65 1013.9
20260506224920 77 179 4.3 9.6 0.00 0.00 0.00 65 1014.0
20260506222942 78 192 4.3 9.6 0.00 0.00 0.00 63 1014.1
20260506222409 78 180 3.5 10.4 0.00 0.00 0.00 64 1014.0
20260506221924 78 185 4.3 12.2 0.00 0.00 0.00 63 1013.9
20260506221445 79 182 6.1 12.2 0.00 0.00 0.00 62 1013.7
20260506220918 79 178 5.2 12.2 0.00 0.00 0.00 63 1013.7
20260506220443 79 181 3.5 13.9 0.00 0.00 0.00 63 1013.8
20260506215905 80 189 5.2 13.9 0.00 0.00 0.00 62 1013.7
20260506214912 80 202 3.5 9.6 0.00 0.00 0.00 61 1014.0
20260506214405 79 208 2.6 13.0 0.00 0.00 0.00 63 1013.9
20260506213931 80 189 3.5 15.6 0.00 0.00 0.00 63 1013.7
20260506213421 80 194 7.0 15.6 0.00 0.00 0.00 61 1013.7
20260506212435 80 167 4.3 13.9 0.00 0.00 0.00 61 1013.9
20260506211937 80 167 7.0 13.9 0.00 0.00 0.00 61 1014.0
20260506211440 80 194 7.0 14.8 0.00 0.00 0.00 61 1014.0
20260506210918 81 176 7.0 19.1 0.00 0.00 0.00 60 1014.0
20260506210404 81 172 6.1 19.1 0.00 0.00 0.00 60 1013.9
20260506205416 81 174 7.0 14.8 0.00 0.00 0.00 59 1013.8
20260506204426 81 187 7.0 14.8 0.00 0.00 0.00 59 1014.1
20260506203927 81 166 7.0 14.8 0.00 0.00 0.00 60 1014.0
20260506203445 82 175 7.0 13.0 0.00 0.00 0.00 60 1014.1
20260506202904 82 173 7.0 13.0 0.00 0.00 0.00 59 1014.1
20260506202444 82 182 6.1 13.0 0.00 0.00 0.00 58 1014.2
20260506201937 82 205 3.5 12.2 0.00 0.00 0.00 57 1014.2
20260506201443 83 190 6.1 12.2 0.00 0.00 0.00 56 1014.1
20260506200904 82 195 3.5 15.6 0.00 0.00 0.00 59 1014.1
20260506200406 83 188 8.7 15.6 0.00 0.00 0.00 58 1014.3
20260506195419 82 196 4.3 13.9 0.00 0.00 0.00 59 1014.5
20260506194908 82 193 5.2 14.8 0.00 0.00 0.00 59 1014.5
20260506193422 83 158 6.1 16.5 0.00 0.00 0.00 60 1014.5
20260506192402 83 180 4.3 13.9 0.00 0.00 0.00 58 1014.3
20260506191923 83 202 5.2 12.2 0.00 0.00 0.00 58 1014.5
20260506190433 83 188 4.3 13.9 0.00 0.00 0.00 58 1014.9
20260506185921 82 176 7.8 13.9 0.00 0.00 0.00 58 1015.0
20260506185412 82 157 6.1 10.4 0.00 0.00 0.00 58 1015.1
20260506184944 83 171 4.3 10.4 0.00 0.00 0.00 58 1015.3
20260506184412 83 191 3.5 9.6 0.00 0.00 0.00 57 1015.4
20260506183938 84 219 2.6 9.6 0.00 0.00 0.00 57 1015.4
20260506183421 84 203 2.6 9.6 0.00 0.00 0.00 58 1015.5
20260506182910 83 182 2.6 11.3 0.00 0.00 0.00 61 1015.4
20260506182402 82 172 6.1 13.0 0.00 0.00 0.00 60 1015.5
20260506181933 82 174 6.1 13.0 0.00 0.00 0.00 58 1015.5
20260506181439 82 174 7.8 13.0 0.00 0.00 0.00 60 1015.5
20260506180920 82 151 4.3 9.6 0.00 0.00 0.00 60 1015.5
20260506180422 83 172 3.5 7.8 0.00 0.00 0.00 60 1015.6
20260506175922 83 291 2.6 5.2 0.00 0.00 0.00 55 1015.8
20260506175438 82 209 1.7 7.8 0.00 0.00 0.00 59 1016.1
20260506174930 82 209 2.6 10.4 0.00 0.00 0.00 61 1016.1
20260506174417 82 182 2.6 7.8 0.00 0.00 0.00 60 1016.1
20260506173939 81 228 3.5 7.0 0.00 0.00 0.00 58 1016.2
20260506173424 81 230 2.6 11.3 0.00 0.00 0.00 61 1016.2
20260506172941 82 224 3.5 11.3 0.00 0.00 0.00 59 1016.2
20260506171941 83 168 3.5 11.3 0.00 0.00 0.00 58 1016.0
20260506171405 83 219 2.6 10.4 0.00 0.00 0.00 57 1016.2
20260506170939 83 215 2.6 10.4 0.00 0.00 0.00 58 1016.2
20260506165928 82 220 5.2 12.2 0.00 0.00 0.00 56 1016.5
20260506165422 82 239 4.3 12.2 0.00 0.00 0.00 57 1016.4
20260506164913 82 250 3.5 10.4 0.00 0.00 0.00 58 1016.5
20260506164425 82 165 3.5 10.4 0.00 0.00 0.00 59 1016.3
20260506163929 82 244 4.3 8.7 0.00 0.00 0.00 58 1016.4
20260506163422 81 226 2.6 8.7 0.00 0.00 0.00 59 1016.4
20260506162938 81 220 3.5 8.7 0.00 0.00 0.00 60 1016.5
20260506161906 81 173 5.2 12.2 0.00 0.00 0.00 59 1016.6
20260506161420 81 216 3.5 7.8 0.00 0.00 0.00 58 1016.7
20260506160931 80 193 2.6 7.8 0.00 0.00 0.00 59 1016.8
20260506155903 80 160 5.2 11.3 0.00 0.00 0.00 58 1016.7
20260506155446 80 182 4.3 10.4 0.00 0.00 0.00 57 1016.9
20260506153913 80 200 6.1 13.0 0.00 0.00 0.00 55 1017.1
20260506152906 80 193 4.3 11.3 0.00 0.00 0.00 56 1016.9
20260506151909 80 230 4.3 12.2 0.00 0.00 0.00 56 1017.1
20260506151420 80 239 2.6 11.3 0.00 0.00 0.00 56 1017.1
20260506145931 79 226 4.3 10.4 0.00 0.00 0.00 58 1017.1
20260506145412 79 190 3.5 10.4 0.00 0.00 0.00 59 1017.1
20260506144924 78 192 4.3 11.3 0.00 0.00 0.00 60 1017.0
20260506144445 78 163 6.1 11.3 0.00 0.00 0.00 62 1016.9
20260506143944 78 176 3.5 7.8 0.00 0.00 0.00 61 1016.9
20260506143409 77 221 2.6 8.7 0.00 0.00 0.00 61 1016.7
20260506142936 77 191 2.6 13.0 0.00 0.00 0.00 62 1016.8
20260506142442 78 200 3.5 13.0 0.00 0.00 0.00 60 1016.8
20260506141428 78 185 4.3 9.6 0.00 0.00 0.00 61 1016.9
20260506140944 77 176 3.5 9.6 0.00 0.00 0.00 62 1016.9
20260506140423 76 184 4.3 9.6 0.00 0.00 0.00 62 1017.0
20260506135933 76 191 2.6 9.6 0.00 0.00 0.00 62 1016.8
20260506134922 76 200 6.1 13.0 0.00 0.00 0.00 62 1016.6
20260506134411 76 214 5.2 12.2 0.00 0.00 0.00 64 1016.8
20260506133917 76 186 5.2 12.2 0.00 0.00 0.00 64 1016.7
20260506132905 76 184 5.2 13.9 0.00 0.00 0.00 66 1016.7
20260506132436 75 205 2.6 11.3 0.00 0.00 0.00 69 1016.7
20260506131906 75 213 2.6 11.3 0.00 0.00 0.00 69 1016.6
20260506131420 75 177 4.3 10.4 0.00 0.00 0.00 71 1016.5
20260506130407 74 210 1.7 9.6 0.00 0.00 0.00 73 1016.5
20260506125928 73 187 2.6 7.8 0.00 0.00 0.00 74 1016.4
20260506125420 73 193 2.6 7.0 0.00 0.00 0.00 75 1016.4
20260506124921 72 201 3.5 7.0 0.00 0.00 0.00 76 1016.5
20260506124446 72 177 3.5 7.0 0.00 0.00 0.00 77 1016.4
20260506122901 70 188 1.7 7.8 0.00 0.00 0.00 82 1016.2
20260506122418 69 175 2.6 7.0 0.00 0.00 0.00 85 1016.4
20260506121940 68 172 0.9 4.3 0.00 0.00 0.00 87 1016.4
20260506121432 66 173 1.7 4.3 0.00 0.00 0.00 89 1016.3
20260506120907 63 180 0.9 4.3 0.00 0.00 0.00 92 1016.4
20260506120406 60 193 1.7 4.3 0.00 0.00 0.00 92 1016.5
20260506115919 58 144 0.0 1.7 0.00 0.00 0.00 92 1016.3
20260506115402 57 131 0.0 1.7 0.00 0.00 0.00 92 1016.4
20260506114418 55 109 0.0 1.7 0.00 0.00 0.00 92 1016.2
20260506113946 55 79 0.0 1.7 0.00 0.00 0.00 91 1016.2
20260506111907 54 77 0.9 1.7 0.00 0.00 0.00 91 1015.9
20260506111435 54 55 0.0 0.9 0.00 0.00 0.00 91 1016.1
20260506110414 53 90 0.0 0.9 0.00 0.00 0.00 91 1015.9
20260506105903 53 55 0.0 0.9 0.00 0.00 0.00 91 1015.8
20260506105430 53 63 0.0 0.9 0.00 0.00 0.00 91 1015.9
20260506104920 53 59 0.0 1.7 0.00 0.00 0.00 91 1015.9
20260506103910 53 89 0.0 1.7 0.00 0.00 0.00 91 1015.9
20260506103407 53 32 0.0 0.9 0.00 0.00 0.00 91 1015.9
20260506102415 53 47 0.0 0.9 0.00 0.00 0.00 91 1015.8
20260506101913 53 49 0.0 0.9 0.00 0.00 0.00 91 1015.7
20260506101432 53 77 0.0 0.9 0.00 0.00 0.00 91 1015.7
20260506100944 53 33 0.0 0.9 0.00 0.00 0.00 91 1015.6
20260506100443 53 60 0.0 0.9 0.00 0.00 0.00 91 1015.6
20260506095924 53 76 0.0 0.9 0.00 0.00 0.00 91 1015.6
20260506095422 53 129 0.0 0.9 0.00 0.00 0.00 91 1015.6
20260506094920 53 29 0.0 0.9 0.00 0.00 0.00 91 1015.7
20260506094414 53 45 0.0 0.9 0.00 0.00 0.00 91 1015.7
20260506093913 53 45 0.0 0.9 0.00 0.00 0.00 91 1015.7
20260506093422 53 41 0.0 0.9 0.00 0.00 0.00 91 1015.7
20260506092920 54 41 0.0 1.7 0.00 0.00 0.00 91 1015.8
20260506092441 54 59 0.0 1.7 0.00 0.00 0.00 91 1015.7
20260506091943 54 50 0.9 0.9 0.00 0.00 0.00 91 1015.6
20260506091427 54 56 0.9 0.9 0.00 0.00 0.00 91 1015.6
20260506090434 54 67 0.0 0.9 0.00 0.00 0.00 91 1015.7
20260506085421 54 58 0.9 1.7 0.00 0.00 0.00 91 1015.8
20260506084921 54 56 0.0 0.9 0.00 0.00 0.00 91 1015.8
20260506084443 54 20 0.0 0.9 0.00 0.00 0.00 91 1016.0
20260506083417 53 25 0.0 0.9 0.00 0.00 0.00 91 1015.8
20260506082930 53 44 0.0 0.9 0.00 0.00 0.00 91 1015.8
20260506082431 53 36 0.0 0.9 0.00 0.00 0.00 91 1015.8
20260506081925 53 35 0.0 0.9 0.00 0.00 0.00 91 1015.8
20260506081431 53 66 0.0 0.9 0.00 0.00 0.00 91 1015.7
20260506080911 53 51 0.0 0.9 0.00 0.00 0.00 91 1015.7
20260506080405 53 38 0.0 0.9 0.00 0.00 0.00 91 1015.7
20260506073403 53 29 0.0 0.9 0.00 0.00 0.00 91 1015.5
20260506072909 53 53 0.0 0.9 0.00 0.00 0.00 91 1015.4
20260506072443 53 37 0.9 0.9 0.00 0.00 0.00 91 1015.4
20260506071404 53 46 0.0 1.7 0.00 0.00 0.00 91 1015.5
20260506070903 53 61 0.9 1.7 0.00 0.00 0.00 91 1015.5
20260506061921 52 63 0.0 0.9 0.00 0.00 0.00 91 1015.5
20260506061408 52 53 0.0 0.9 0.00 0.00 0.00 91 1015.6
20260506060939 52 48 0.0 0.9 0.00 0.00 0.00 91 1015.6
20260506060422 53 64 0.9 0.9 0.00 0.00 0.00 91 1015.7
20260506050907 53 53 0.9 0.9 0.00 0.00 0.00 90 1016.4
20260506050439 53 32 0.0 0.9 0.00 0.00 0.00 90 1016.4
20260506044930 53 55 0.9 0.9 0.00 0.00 0.00 90 1016.6
20260506044431 53 58 0.0 1.7 0.00 0.00 0.00 90 1016.7
20260506043904 53 16 0.0 1.7 0.00 0.00 0.00 90 1016.7
20260506042909 53 35 0.9 0.9 0.00 0.00 0.00 90 1016.9
20260506041938 53 42 0.9 1.7 0.00 0.00 0.00 90 1016.8
20260506041427 54 40 0.9 1.7 0.00 0.00 0.00 90 1016.7
20260506040928 54 53 0.9 1.7 0.00 0.00 0.00 90 1016.7
20260506035906 54 44 0.0 0.9 0.00 0.00 0.00 90 1016.9
20260506035400 54 43 0.0 0.9 0.00 0.00 0.00 90 1016.8
20260506034936 54 33 0.0 1.7 0.00 0.00 0.00 90 1016.6
20260506034424 54 334 0.0 1.7 0.00 0.00 0.00 89 1016.6
20260506033920 54 60 0.9 0.9 0.00 0.00 0.00 89 1016.6
20260506033403 54 63 0.0 0.9 0.00 0.00 0.00 89 1016.6
20260506032912 55 65 0.9 0.9 0.00 0.00 0.00 89 1016.6
20260506032428 55 58 0.9 0.9 0.00 0.00 0.00 89 1016.7
20260506031916 55 82 0.0 1.7 0.00 0.00 0.00 89 1016.7
20260506031440 55 67 0.9 1.7 0.00 0.00 0.00 89 1016.6
20260506030919 55 60 0.9 1.7 0.00 0.00 0.00 89 1016.7
20260506030435 55 59 0.9 1.7 0.00 0.00 0.00 89 1016.7
20260506025927 56 43 0.9 0.9 0.00 0.00 0.00 89 1016.8
20260506024946 56 62 0.9 1.7 0.00 0.00 0.00 88 1017.1
20260506024430 56 48 0.9 0.9 0.00 0.00 0.00 88 1017.2
20260506023913 56 49 0.9 1.7 0.00 0.00 0.00 88 1017.2
20260506023444 56 58 0.9 1.7 0.00 0.00 0.00 88 1017.2
20260506022916 56 54 0.9 1.7 0.00 0.00 0.00 87 1017.3
20260506022403 57 15 0.0 0.9 0.00 0.00 0.00 87 1017.3
20260506021442 57 58 0.0 1.7 0.00 0.00 0.00 87 1017.0
20260506020407 58 73 0.9 0.9 0.00 0.00 0.00 87 1016.8
20260506015907 58 163 0.0 0.9 0.00 0.00 0.00 86 1016.8